Lid_Strength_Index
12 13 14 12 12 10 10 11 11 10 8 9 10 10 9 7 7 8 8 7 6 5 4 4 5 5 5 6 7 7 8 8 7 9 9 7 8 8 7 7 6 6 6 6
13 14 12 11 10 9 10 11 11 10 8 9 10 10 8 8 7 7 8 7 6 5 5 5 5 5 6 7 7 8 8 7 8 9 8 7 7 7 7 7 7 6 6 6
14 12 10 10 11 11 10 11 11 10 9 9 11 11 10 8 7 6 6 7 6 6 6 6 6 6 6 7 7 8 8 8 9 9 7 7 7 8 8 8 7 7 6 6
13 11 11 11 11 11 14 10 9 10 11 14 10 16 12 10 9 8 7 7 6 5 5 5 6 6 6 7 6 7 8 9 8 7 7 8 9 9 8 8 7 6 5 5
12 12 12 12 11 10 12 10 10 10 12 13 13 16 13 11 12 10 8 7 6 5 5 5 6 6 6 6 7 7 9 9 8 7 8 8 8 8 7 7 7 6 6 5
10 10 10 11 10 9 9 10 12 13 14 15 13 15 13 14 12 10 8 7 6 6 5 5 5 6 7 7 7 7 9 9 7 7 7 7 8 8 7 7 7 6 7 6
11 11 10 9 12 11 12 14 17 17 17 17 13 14 12 10 9 9 8 7 6 6 6 6 7 8 8 8 8 8 9 9 7 7 7 7 7 8 7 7 7 7 7 8
15 15 11 9 11 13 13 13 16 18 18 16 13 16 13 9 8 7 7 7 6 6 6 6 7 8 8 8 9 8 8 8 8 7 7 7 7 7 7 7 7 7 8 7
15 14 9 9 9 10 13 15 12 15 15 16 14 13 10 9 9 8 8 7 7 6 6 6 6 7 8 8 9 9 8 8 7 7 8 7 7 7 7 7 7 7 7 7
11 14 10 8 9 11 11 10 15 16 18 18 15 17 15 12 11 9 9 8 7 6 6 6 6 7 8 8 9 9 7 8 7 7 7 7 7 7 6 7 7 7 7 7
11 12 12 10 11 11 12 14 13 13 14 16 18 17 11 10 10 10 9 8 7 6 6 6 6 7 8 9 9 8 8 8 7 7 8 7 7 7 6 7 7 7 7 7
11 13 14 13 10 9 11 12 12 15 16 15 15 15 9 9 8 8 9 8 6 6 6 7 9 9 10 10 8 9 8 7 7 7 7 7 7 7 7 7 7 7 7 7
11 14 16 14 13 10 11 12 12 13 13 15 16 14 8 9 9 8 8 7 6 6 8 10 11 10 10 9 8 8 7 7 7 7 7 7 7 7 7 7 7 7 7 7
8 13 14 15 13 11 11 11 10 11 15 14 14 12 11 10 10 9 8 7 6 6 9 10 11 11 10 9 8 8 8 7 6 7 7 7 7 7 7 7 7 7 6 7
11 13 13 12 10 10 11 11 11 12 12 12 11 12 10 9 9 9 7 7 7 9 10 10 11 11 10 9 9 8 7 7 6 7 7 7 7 7 7 7 7 7 6 6
11 13 12 13 10 10 11 10 10 10 11 11 11 12 8 8 7 8 8 7 9 10 9 10 10 10 10 9 9 7 7 7 6 6 7 7 7 7 7 7 7 7 6 7
11 12 13 14 10 10 13 11 10 10 10 10 13 10 9 10 9 8 8 7 8 9 9 10 10 10 9 9 8 8 7 6 6 6 6 6 6 6 7 7 7 7 6 7
12 13 14 15 13 16 12 9 8 9 9 9 9 9 8 8 8 7 6 6 7 8 9 10 10 10 9 8 7 7 7 6 6 7 6 6 6 6 7 7 6 5 6 8
11 12 14 15 15 13 11 10 10 11 11 9 8 8 8 7 8 9 7 6 7 7 8 9 9 9 9 8 7 7 7 6 6 7 6 6 6 5 6 7 6 5 6 6
10 12 12 15 16 18 12 8 7 9 13 9 8 8 8 8 12 9 7 6 7 7 8 9 10 9 9 9 7 8 7 6 6 6 6 5 5 5 7 6 6 6 6 6
13 13 13 15 16 13 9 8 7 13 12 9 7 8 8 9 8 7 6 7 7 8 8 9 9 9 9 8 8 8 7 6 6 5 4 5 6 6 6 8 6 6 6 6
13 14 14 14 16 16 8 8 10 9 9 8 7 7 7 8 8 7 7 7 8 9 9 9 10 9 8 8 7 7 7 6 6 5 4 5 6 6 7 9 8 6 6 7
14 12 14 12 12 9 8 8 7 7 7 8 8 7 7 8 8 8 8 8 9 9 10 9 9 9 9 8 7 7 6 6 5 6 6 6 7 7 8 8 9 9 9 8
11 9 12 11 10 9 8 7 7 7 7 7 6 6 7 8 8 8 8 9 9 10 10 9 9 9 9 7 6 6 6 6 6 7 7 8 9 9 9 8 7 7 8 8
10 10 11 11 9 8 7 7 7 6 6 6 6 6 7 8 9 8 9 9 9 9 9 8 8 8 7 6 6 6 6 6 7 7 8 9 9 9 9 8 6 6 6 7
9 10 11 12 8 8 8 6 5 6 6 6 6 6 6 7 8 8 8 8 8 8 8 8 7 7 6 6 6 6 6 6 7 8 8 9 9 9 8 8 7 8 8 8